Dewpoint
51 51 51 51 50 50 49 48 47 46 42 44 46 43 43 45 40 5 6 20 30 36 46 30 21 7 16 16 14 10 11 7 8 8 12 15 17 20 23 23 23 24 24 25 27
51 51 51 51 50 49 47 45 44 43 44 47 46 46 43 43 20 2 20 31 35 39 25 6 2 6 6 6 8 4 4 10 8 7 7 17 19 19 21 21 21 21 22 24 25
50 50 51 51 50 49 46 45 45 45 44 41 44 36 31 35 14 2 20 28 31 32 18 8 6 3 3 4 1 4 2 6 11 13 5 18 19 20 20 19 19 19 20 21 22
51 51 51 51 51 48 46 42 41 42 40 35 36 33 31 24 4 5 19 28 24 16 4 6 5 2 1 -2 1 -1 3 8 6 11 13 15 19 18 19 18 19 19 20 20 20
51 51 51 51 49 46 44 41 40 39 35 34 35 32 14 2 2 6 16 9 2 -1 -4 -3 -1 4 1 0 3 4 3 3 4 6 7 13 16 18 17 18 18 19 19 18 18
51 51 50 49 48 46 45 43 37 33 33 30 26 19 4 -2 3 6 3 3 2 -1 -5 -5 -7 -1 3 4 3 2 0 -0 1 2 4 0 14 16 16 17 17 17 18 18 17
51 51 50 48 47 45 42 37 33 34 29 24 22 14 3 1 3 0 1 -1 -2 -2 -3 -4 -4 -7 -5 -1 1 -1 1 2 3 -3 -3 -5 1 15 15 16 15 15 15 16 16
51 50 49 48 46 41 35 30 29 22 22 27 29 6 -0 3 3 -0 -0 2 1 -1 -3 -5 -5 -6 -8 -7 0 -10 -13 -9 -5 -12 -11 -12 4 13 12 11 11 12 12 13 13
50 49 47 46 42 35 30 28 23 22 21 21 20 8 -1 2 1 2 1 -4 3 -0 -3 -6 -6 -7 -7 -16 -19 -14 -17 -15 -16 -14 -11 -10 -11 12 11 11 11 11 11 11 12
50 48 46 45 38 37 35 37 27 24 16 11 8 7 0 -1 0 4 1 -1 -0 -0 -5 -8 -10 -12 -10 -12 -16 -14 -16 -15 -12 -14 -14 -12 -9 15 12 10 10 9 10 11 12
49 48 44 44 39 36 29 30 21 10 8 7 7 2 -2 0 -1 2 2 0 -3 -5 -7 -9 -14 -14 -13 -10 -10 -11 -14 -15 -14 -13 -16 -14 -9 9 9 9 8 7 8 9 11
49 48 43 40 39 37 37 28 15 13 7 5 5 4 3 -2 -3 -2 3 -3 -2 -7 -8 -9 -11 -11 -10 -10 -10 -11 -11 -12 -11 -10 -11 -13 -1 10 7 6 5 5 6 7 8
47 46 43 39 39 34 31 24 23 31 14 9 6 4 5 5 -2 -4 1 -2 -6 -3 -7 -9 -10 -10 -9 -9 -9 -10 -9 -9 -10 -9 -10 0 9 13 7 4 4 4 6 7 10
47 44 43 37 30 26 31 28 35 40 20 7 5 5 3 9 3 -1 1 -2 -4 -7 -3 -6 -7 -10 -10 -8 -8 -9 -7 -8 -9 -10 -9 5 12 11 4 3 2 3 4 6 8
45 42 40 37 36 32 34 36 40 45 26 6 7 8 6 3 2 2 -1 -0 -2 -5 -7 -6 -9 -8 -10 -5 -6 -6 -6 -7 -12 -13 1 5 7 16 5 3 2 2 2 4 6
43 43 42 40 43 38 39 40 46 37 12 8 7 3 5 6 3 5 -1 -2 -1 -3 -7 -9 -7 -6 -6 -2 -2 -3 -5 -8 -9 7 13 9 1 15 8 3 2 1 1 3 5
42 41 44 48 41 44 45 43 32 21 10 5 7 4 2 5 5 2 1 -4 -7 -8 -7 -9 -7 -7 -3 -0 -3 -4 -4 -7 -7 -7 -4 11 4 14 6 1 -0 -1 0 2 3
42 44 44 48 47 48 45 35 11 7 7 5 3 7 6 5 9 7 1 -2 -4 -6 -5 -10 -13 -6 -2 -1 -4 -4 -4 -3 -2 -5 -4 9 8 13 11 -1 -1 -0 1 2 3
41 44 37 43 46 45 40 25 22 8 5 6 7 5 5 4 9 6 4 -1 -0 -4 -2 -5 -8 -7 -2 -1 -1 -3 -3 -2 -3 -4 -7 -4 14 16 8 1 -1 -0 1 3 3
43 35 34 42 44 44 34 19 15 10 6 8 7 4 4 5 7 6 5 2 -2 -0 -0 -3 -5 -7 -3 2 -1 0 1 -1 -1 -2 -4 -3 -2 8 6 5 1 -1 0 2 3
44 35 38 40 45 39 31 20 12 9 11 13 7 6 5 5 7 7 6 5 0 1 4 3 -1 -1 -1 5 -1 2 1 1 -1 -3 -5 -5 -0 14 10 4 0 -1 -1 2 4
40 33 38 39 35 26 24 17 11 10 11 10 12 8 8 8 8 7 5 5 5 6 6 6 3 3 -4 5 5 4 1 0 -0 -3 -3 2 8 7 5 7 4 4 2 3 6
32 32 35 41 28 32 19 14 13 11 12 12 11 12 11 11 13 10 8 7 9 10 9 6 6 4 -2 6 8 2 -0 -2 0 2 4 -1 -3 6 5 10 10 8 10 10 11
32 27 30 27 30 27 20 16 15 15 14 14 12 10 14 14 13 11 10 11 8 6 11 9 12 9 5 4 3 2 2 -1 2 2 6 2 -1 7 5 15 17 16 16 17 12
33 36 33 21 32 24 23 19 16 13 16 13 14 13 12 12 11 11 10 10 11 19 11 14 11 8 7 6 2 7 2 1 1 9 5 6 10 12 15 14 18 17 16 15 15
39 29 29 28 27 25 23 21 16 15 15 14 15 15 12 14 13 12 13 13 12 16 14 14 12 12 9 9 6 2 5 5 3 3 6 7 5 10 9 12 16 18 19 20 21
31 34 34 26 26 24 26 22 18 18 19 17 16 16 16 18 18 18 19 18 17 14 14 14 12 11 8 5 9 7 6 8 3 -5 7 5 9 13 15 14 18 21 19 22 21
Wind_Speed
13 13 13 13 12 12 11 10 10 11 12 12 13 19 20 16 16 26 20 11 11 25 20 20 19 6 14 11 6 10 13 9 22 15 15 19 20 15 22 22 23 23 18 16 20
13 12 12 12 12 11 10 10 10 11 14 13 10 11 15 9 7 33 22 25 21 19 17 15 15 14 12 8 4 13 12 15 15 15 13 18 20 12 9 21 21 19 18 18 21
13 12 12 12 12 11 10 10 10 11 15 17 15 10 7 6 5 24 30 31 26 22 21 20 9 11 6 3 8 10 12 14 15 15 10 23 22 21 16 19 18 17 18 20 22
13 13 12 11 11 10 11 12 13 12 14 20 20 13 14 7 6 17 26 24 25 19 17 14 14 9 5 8 9 7 7 10 12 14 12 14 15 21 21 14 14 15 17 20 22
12 11 10 9 9 9 10 12 15 15 17 18 17 12 3 30 15 14 20 24 20 22 26 23 18 13 11 14 13 9 6 5 7 10 11 3 11 16 17 12 15 16 19 20 22
11 10 9 9 9 9 9 10 11 15 15 17 21 17 19 30 16 11 17 18 20 21 24 22 17 11 5 6 8 8 5 4 3 6 8 11 11 9 15 12 17 19 20 20 21
11 11 9 8 7 8 8 6 8 7 7 7 10 6 33 18 15 17 13 18 17 19 18 23 13 16 16 10 6 11 10 14 11 5 5 9 4 16 15 16 19 19 19 20 22
11 10 9 8 6 4 2 3 3 6 10 11 12 26 17 12 16 16 10 6 12 17 15 16 25 18 24 11 12 7 11 14 15 3 13 10 6 12 14 17 20 22 22 20 22
12 11 11 10 5 2 5 6 7 6 9 13 5 10 12 19 21 18 17 9 3 12 20 16 23 27 27 27 24 17 14 20 22 16 15 12 15 16 16 17 21 22 22 23 22
13 12 11 9 5 6 10 5 7 6 9 9 17 13 14 15 19 18 15 13 5 10 21 22 13 21 22 23 17 15 18 16 17 17 24 19 16 12 15 19 19 19 20 22 24
14 12 10 8 5 8 11 10 5 11 23 22 15 16 15 4 22 23 17 18 18 20 12 26 25 27 23 19 16 17 19 18 18 26 23 19 16 18 13 14 16 18 21 20 21
14 11 10 8 8 11 9 7 10 11 15 16 17 12 11 18 12 24 20 9 13 17 20 7 25 20 18 17 18 18 18 23 24 23 21 22 6 17 11 14 15 18 18 19 20
15 11 8 6 7 7 6 4 8 8 4 8 10 13 8 9 18 24 18 10 10 8 16 19 13 18 19 20 22 18 21 25 30 27 20 19 11 10 7 12 15 17 16 19 21
15 11 6 2 2 10 2 4 5 5 5 4 9 7 17 1 8 18 12 12 14 10 4 9 12 18 20 22 22 17 28 30 30 23 11 9 4 3 4 10 15 15 15 16 18
16 13 7 3 2 4 5 1 3 2 3 3 5 1 11 11 9 13 11 3 7 9 9 4 9 17 22 22 20 24 30 30 20 7 4 9 3 3 11 11 13 13 14 14 14
12 12 8 4 4 5 3 1 3 4 2 4 3 4 5 9 10 6 13 11 2 5 14 13 11 12 18 15 14 23 29 20 14 9 4 11 10 4 4 7 11 13 15 16 17
9 11 7 6 3 1 1 3 1 4 1 4 2 3 2 7 8 9 9 21 18 12 13 7 12 10 18 14 11 25 27 14 15 16 13 6 12 4 1 4 9 12 14 16 15
8 10 7 6 6 2 3 4 4 2 4 3 1 2 3 8 4 4 11 11 17 17 9 9 6 12 12 10 16 19 18 12 17 18 21 6 4 3 8 7 9 11 12 15 18
8 4 2 5 4 3 5 5 2 5 3 2 3 6 5 5 3 4 6 9 8 14 8 10 3 3 6 7 13 11 20 12 14 15 15 7 2 3 7 8 10 11 13 15 18
5 4 4 3 3 2 3 2 2 3 3 0 4 3 5 5 3 7 9 4 5 6 8 8 8 2 7 3 9 8 11 12 15 8 17 19 9 2 5 7 11 14 15 16 18
4 4 2 1 2 6 2 4 6 5 2 3 2 2 2 4 3 4 3 4 3 6 4 9 5 10 14 2 7 7 11 8 11 5 17 16 19 6 5 8 10 11 14 16 18
5 2 2 1 1 3 4 5 4 6 1 2 2 3 2 3 3 2 4 4 3 4 6 5 5 14 8 6 4 7 9 10 12 13 16 17 7 1 3 12 15 16 17 16 18
4 4 3 2 3 4 6 7 3 5 3 2 2 2 1 2 3 1 2 5 2 4 6 10 3 9 3 5 9 12 13 13 13 11 16 18 10 5 18 15 17 19 17 14 18
5 2 3 6 3 8 8 6 4 1 4 1 2 2 2 4 3 3 2 4 2 3 5 3 6 9 11 16 19 18 15 15 11 14 18 19 21 23 22 17 18 15 13 13 18
1 1 1 1 4 8 5 8 8 4 3 5 3 6 3 3 5 6 2 4 9 9 3 3 7 12 15 21 19 6 16 16 15 13 16 19 22 22 15 15 9 9 12 15 16
2 1 3 3 6 7 2 8 9 4 7 5 5 4 3 4 3 6 7 7 7 11 6 8 9 17 22 5 4 18 17 16 17 13 11 16 23 12 20 17 17 15 13 12 14
1 1 3 3 7 7 6 7 7 8 2 5 5 3 6 3 4 6 7 9 10 8 10 11 8 13 8 11 13 17 6 12 12 11 9 15 20 15 11 14 18 17 12 8 12
Wind_Direction
19 20 21 21 20 18 15 7 359 344 322 320 320 309 304 309 306 35 28 322 300 303 312 278 264 279 267 272 279 292 278 324 20 38 73 43 50 73 94 67 58 52 47 14 8
16 17 18 16 18 16 11 1 352 335 318 317 308 299 296 319 342 30 349 337 323 312 321 342 341 315 275 293 335 296 314 48 32 20 15 83 58 12 57 52 42 40 34 24 17
14 11 12 11 11 8 2 354 356 349 344 333 326 311 303 299 4 15 341 326 314 304 286 293 280 296 314 6 350 23 4 349 34 10 0 107 73 42 36 43 35 29 24 25 21
10 7 5 5 5 2 355 350 349 353 355 340 339 323 292 219 75 4 327 312 307 353 13 0 356 353 345 343 3 306 50 32 41 23 31 28 84 60 48 44 40 38 31 26 26
8 5 1 358 357 356 349 343 341 342 341 341 343 311 61 58 31 9 347 12 26 25 25 16 15 344 13 344 342 309 97 55 69 63 34 27 70 80 45 23 42 35 34 30 25
5 359 356 357 350 345 346 346 331 326 336 339 13 64 67 63 8 11 15 24 26 26 34 23 9 343 330 1 341 352 331 148 32 51 74 16 78 39 40 26 41 34 29 26 22
7 4 360 352 347 341 341 332 308 311 322 329 314 13 53 37 19 358 54 41 34 32 29 24 9 25 339 341 337 302 264 228 197 74 72 29 210 68 36 32 33 27 25 21 21
15 12 1 358 349 327 283 233 208 285 298 302 306 79 73 38 11 10 9 22 32 41 50 38 36 26 7 312 259 252 280 270 137 179 93 48 96 76 48 39 28 16 13 11 13
14 11 6 8 347 248 214 220 233 262 277 287 304 97 57 30 25 3 359 16 112 51 30 45 34 40 19 358 21 43 339 330 320 356 1 9 322 103 56 39 28 17 7 5 8
9 6 8 14 329 317 303 301 296 265 247 236 6 118 34 33 25 8 1 18 75 138 60 40 42 35 40 32 19 331 316 307 297 346 342 321 308 69 43 34 28 17 17 6 1
6 1 355 9 355 341 318 283 201 51 58 70 62 74 37 44 40 20 354 35 34 38 51 47 39 30 18 23 360 326 321 307 333 340 319 299 278 86 50 50 36 26 18 16 5
359 356 343 347 351 317 299 348 50 135 83 71 79 77 47 43 29 22 358 28 63 62 22 92 36 15 14 18 356 344 352 335 318 318 305 288 344 55 51 51 34 24 12 1 5
352 346 332 317 325 291 340 68 60 5 118 87 76 39 30 41 35 16 7 353 9 51 69 64 33 13 18 13 358 343 354 325 314 307 282 321 89 55 33 46 34 28 15 4 2
354 346 341 277 208 223 207 158 45 357 187 71 28 29 13 46 58 22 1 8 47 13 106 59 28 16 19 12 0 350 336 322 309 290 346 339 91 138 28 29 23 17 12 13 4
354 350 341 257 68 186 111 82 357 269 239 60 66 318 59 59 331 16 43 1 60 42 47 63 20 20 20 4 6 346 335 325 313 341 58 359 62 328 29 7 5 5 2 4 8
346 344 322 230 23 68 119 311 287 246 71 113 84 36 45 53 39 16 48 26 249 300 107 103 90 46 16 6 7 348 354 354 28 64 75 341 324 124 43 337 352 353 358 358 358
329 348 360 18 74 95 244 226 234 68 199 108 68 19 44 25 26 22 355 42 34 0 352 135 65 91 25 10 357 7 10 3 6 357 350 303 314 163 227 332 352 354 0 357 355
306 322 63 50 5 3 238 223 82 45 45 84 49 178 65 3 97 1 21 25 29 5 318 346 303 31 17 21 351 11 15 15 329 335 311 43 341 358 230 10 345 349 1 357 358
307 211 76 18 340 308 253 51 55 24 64 143 208 288 116 109 291 298 62 23 37 18 15 2 7 100 66 356 19 352 11 342 339 319 325 348 115 349 285 350 346 348 359 355 355
281 179 50 342 358 260 246 104 114 53 96 224 329 355 351 17 283 4 19 32 16 43 338 359 300 168 131 288 36 25 1 343 348 323 329 331 336 276 252 316 342 352 352 351 353
265 214 31 34 320 242 123 91 125 85 12 347 34 296 8 349 339 0 34 116 28 348 318 332 277 301 299 138 19 347 357 350 327 324 329 321 318 136 235 290 319 340 343 345 346
273 207 44 213 222 55 120 132 108 144 81 97 53 24 339 347 308 347 355 25 45 345 336 33 298 294 331 122 112 274 349 333 330 322 319 305 317 307 277 338 339 338 330 334 335
264 93 138 232 161 122 134 124 113 166 167 166 124 354 38 328 311 266 11 96 103 324 3 352 323 316 182 186 207 305 324 326 313 307 288 320 311 160 345 354 335 323 331 327 316
284 92 132 220 182 161 160 170 149 325 134 177 119 205 217 235 168 300 289 133 199 275 81 336 262 257 264 286 288 302 307 311 299 285 305 289 309 327 321 325 315 324 311 298 315
104 338 88 247 183 171 196 163 157 180 231 202 192 241 265 280 272 242 260 226 195 166 219 246 280 295 297 293 291 299 296 294 281 266 270 286 299 297 309 296 308 316 311 304 314
341 250 202 163 163 159 159 209 188 139 162 199 247 157 232 269 285 293 322 281 261 154 219 233 271 300 298 288 251 288 281 270 273 288 283 293 290 314 321 338 326 314 310 304 309
356 222 277 154 185 200 209 185 201 154 205 324 230 238 233 347 5 320 302 286 272 262 252 254 289 309 288 312 283 283 264 235 264 281 292 278 279 301 318 313 292 278 290 311 297